Location: Agadir Mansour Mhndou
(31.2424°N, 8.7730°W)
Time: 06:39:58
(UTC+00:00)

Cosmos 1048 Rocket - Pass Details

Date: 16 October 2021
Orbit: 743 x 791 km, 74.0° (Epoch: 28 November)

Event Time Altitude Azimuth Distance (km) Brightness Sun altitude
Rises 18:56:47 0° 345° (NNW) 3,283 7.4 -12.4°
Reaches altitude 10° 18:59:12 10° 346° (NNW) 2,347 6.7 -13.0°
Maximum altitude 19:04:32 80° 73° (ENE) 794 3.9 -14.1°
Drops below altitude 10° 19:09:47 10° 161° (SSE) 2,306 6.3 -15.2°
Sets 19:12:08 0° 162° (SSE) 3,221 7.1 -15.7°
